FW9882 Weather Reports


time (UTC)temp
C
wind
direction
speed
KPH
gust
KPH
rain 1hr
cm
rain 24hr
cm
rain mn
cm
humidity
%
barometer
mb
20260507170703 11 293 4.8 8.0 0.00 0.71 0.71 89 999.3
20260507170202 11 298 3.2 3.2 0.00 0.71 0.71 90 999.0
20260507160703 10 272 0.0 3.2 0.00 0.71 0.71 93 999.0
20260507160203 10 272 3.2 3.2 0.00 0.71 0.71 93 999.3
20260507150703 10 85 0.0 1.6 0.05 0.71 0.71 93 999.3
20260507150203 10 84 1.6 3.2 0.05 0.71 0.71 93 999.0
20260507140704 11 114 0.0 0.0 0.10 0.66 0.66 91 1000.3
20260507140203 11 114 0.0 4.8 0.10 0.66 0.66 90 1000.3
20260507130704 12 265 4.8 4.8 0.00 0.56 0.56 86 1000.3
20260507130204 12 271 3.2 3.2 0.00 0.56 0.56 86 1000.0
20260507120703 11 269 3.2 3.2 0.00 0.56 0.56 87 1000.0
20260507120206 11 268 3.2 11.3 0.00 0.56 0.56 87 999.9
20260507110703 11 247 9.7 11.3 0.00 0.56 0.56 89 998.6
20260507100705 12 288 9.7 9.7 0.03 0.56 0.56 88 1000.0
20260507100204 12 272 3.2 12.9 0.03 0.56 0.56 88 1000.0
20260507090704 12 243 8.0 11.3 0.13 0.53 0.53 92 999.3
20260507090203 12 241 8.0 16.1 0.13 0.53 0.53 92 999.0
20260507080703 12 222 4.8 11.3 0.15 0.41 0.41 93 1000.0
20260507080203 12 248 8.0 12.9 0.18 0.41 0.41 93 999.7
20260507070703 12 254 9.7 9.7 0.15 0.25 0.25 91 1001.0
20260507070202 12 254 6.4 14.5 0.15 0.25 0.25 91 1001.3
20260507050703 13 255 8.0 11.3 0.05 0.05 0.05 87 1004.1
20260507050203 13 229 9.7 24.1 0.05 0.05 0.05 86 1004.4
20260507040703 14 228 8.0 12.9 0.00 0.00 0.00 81 1005.1
20260507040203 14 161 11.3 16.1 0.00 0.00 0.00 81 1005.4
20260507030703 14 172 4.8 8.0 0.00 0.00 0.00 83 1006.4
20260507030203 13 227 1.6 12.9 0.00 0.00 0.00 83 1006.4
20260507020703 15 198 11.3 12.9 0.00 0.00 0.00 81 1007.5
20260507020203 15 252 9.7 14.5 0.00 0.00 0.00 80 1007.5
20260507010703 15 268 8.0 12.9 0.00 0.00 0.00 78 1008.8
20260507010204 15 236 11.3 22.5 0.00 0.00 0.00 78 1008.8
20260507000703 17 178 11.3 12.9 0.00 0.00 0.00 71 1008.8
20260507000205 17 235 9.7 19.3 0.00 0.00 0.00 71 1008.8
20260506230704 17 241 8.0 11.3 0.00 0.00 0.00 67 1008.5
20260506230204 17 246 11.3 20.9 0.00 0.00 0.00 67 1008.4
20260506220702 18 244 11.3 29.0 0.00 0.00 0.00 63 1008.1
20260506220201 18 143 20.9 29.0 0.00 0.00 0.00 63 1008.1
20260506210702 19 222 14.5 22.5 0.00 0.00 0.00 60 1008.1
20260506210204 19 280 19.3 24.1 0.00 0.00 0.00 60 1008.1
20260506200703 20 268 19.3 24.1 0.00 0.00 0.00 59 1007.8
20260506200203 20 247 20.9 32.2 0.00 0.00 0.00 60 1007.5
20260506190702 20 253 11.3 14.5 0.00 0.00 0.00 63 1008.1
20260506190202 20 254 11.3 24.1 0.00 0.00 0.00 63 1008.1
20260506180703 19 227 11.3 14.5 0.00 0.00 0.00 67 1008.5
20260506180202 19 257 14.5 27.4 0.00 0.00 0.00 66 1008.7